Preview of NWS' New Version of Forecast
This preview is not operational and should not be used for support decisions.

Regional Weather Roundup (RWR)

Issued by National Weather Service (NWS)

                            
000
ASUS43 KBIS 181210
RWRND 

NORTH DAKOTA REGIONAL WEATHER ROUNDUP
NATIONAL WEATHER SERVICE BISMARCK ND
700 AM CDT SAT MAY 18 2019

NOTE: "FAIR" INDICATES FEW OR NO CLOUDS BELOW 12,000 FEET WITH NO
SIGNIFICANT WEATHER AND/OR OBSTRUCTIONS TO VISIBILITY.


NDZ001>003-009>011-017-181300-
NORTHWEST NORTH DAKOTA
  
CITY           SKY/WX    TMP DP  RH WIND       PRES   REMARKS
WILLISTON      CLOUDY    39  28  64 NE10      29.97R                  
6HR MIN TEMP:  39; 6HR MAX TEMP:  43; 6HR PCP:  0.02;                

MINOT          CLOUDY    42  29  59 NE15      29.93R                  
MINOT AFB      CLOUDY    40  29  65 NE15G23   29.92S                  
$$
 
NDZ018>021-031>035-040>046-181300-
SOUTHWEST NORTH DAKOTA
  
CITY           SKY/WX    TMP DP  RH WIND       PRES   REMARKS
BISMARCK       RAIN      40  38  93 NE18G33   29.79R FOG              
6HR MIN TEMP:  40; 6HR MAX TEMP:  43; 6HR PCP:  0.17;                

DICKINSON      LGT SNOW  34  32  92 NE20G33   29.82R FOG              
GARRISON         N/A     36  32  85 NE9G20    29.88R                  
6HR MIN TEMP:  34; 6HR MAX TEMP:  41; 6HR PCP:  0.18;                

HETTINGER ARPT LGT RAIN  36  34  92 NE20G29   29.74R FOG              
$$
 
NDZ004>008-012>016-024-026-027-054-181300-
NORTHEAST NORTH DAKOTA
  
CITY           SKY/WX    TMP DP  RH WIND       PRES   REMARKS
GRAND FORKS    CLOUDY    48  33  56 NE21G30   29.87S                  
GRND FRKS AFB  PTSUNNY   48  32  53 NE17      29.91R                  
DEVILS LAKE    CLOUDY    41  29  62 NE24      29.89S                  
$$
 
NDZ022-023-025-028>030-036>039-047>053-181300-
SOUTHEAST NORTH DAKOTA
  
CITY           SKY/WX    TMP DP  RH WIND       PRES   REMARKS
FARGO          LGT RAIN  45  44  97 NE14      29.80R FOG              
6HR MIN TEMP:  45; 6HR MAX TEMP:  50; 6HR PCP:  0.44;                

JAMESTOWN      LGT RAIN  43  40  89 NE24G32   29.78R                  
$$